Stündliche Wetter Otmianowo

Heute, 15 April, Donnerstag

Zeit Temperatur Niederschläge Wind Luftdruck Luftfeuchtigkeit
00:00 -2°C° 0.3 mm 6 m/S 755 mmHg 93%
01:00 -2°C° 0.3 mm 6 m/S 754 mmHg 95%
02:00 -2°C° 0.5 mm 6 m/S 754 mmHg 96%
03:00 -2°C° 0.5 mm 6 m/S 754 mmHg 96%
04:00 -2°C° 0.5 mm 6 m/S 753 mmHg 97%
05:00 -2°C° 0.5 mm 6 m/S 753 mmHg 97%
06:00 -2°C° 0.5 mm 6 m/S 753 mmHg 97%
07:00 -1°C° 0.5 mm 6 m/S 753 mmHg 97%
08:00 -2°C° 0.8 mm 6 m/S 753 mmHg 97%
09:00 -2°C° 0.8 mm 6 m/S 753 mmHg 97%
10:00 -1°C° 0.8 mm 5 m/S 753 mmHg 97%
11:00 -1°C° 0.8 mm 5 m/S 753 mmHg 97%
12:00 -1°C° 0.8 mm 5 m/S 753 mmHg 98%
13:00 -1°C° 0.8 mm 5 m/S 753 mmHg 98%
14:00 -1°C° 0.5 mm 5 m/S 753 mmHg 98%
15:00 -1°C° 0.5 mm 4 m/S 752 mmHg 98%
16:00 -1°C° 0.5 mm 4 m/S 752 mmHg 98%
17:00 0°C° 0.5 mm 4 m/S 752 mmHg 98%
18:00 0°C° 0.5 mm 4 m/S 752 mmHg 98%
19:00 +1°C° 0.5 mm 4 m/S 752 mmHg 98%
20:00 +1°C° 0.4 mm 4 m/S 752 mmHg 98%
21:00 +1°C° 0.4 mm 4 m/S 752 mmHg 98%
22:00 +3°C° 0.4 mm 4 m/S 752 mmHg 97%
23:00 +3°C° 0.1 mm 4 m/S 752 mmHg 97%

Morgen, 16 April, Freitag

Zeit Temperatur Niederschläge Wind Luftdruck Luftfeuchtigkeit
00:00 +3°C° 0.1 mm 4 m/S 752 mmHg 97%
01:00 +3°C° 0.1 mm 4 m/S 752 mmHg 97%
02:00 +3°C° 0.4 mm 4 m/S 752 mmHg 96%
03:00 +1°C° 0.4 mm 4 m/S 752 mmHg 96%
04:00 +1°C° 0.4 mm 4 m/S 752 mmHg 95%
05:00 +1°C° 0.1 mm 4 m/S 752 mmHg 96%
06:00 +1°C° 0.1 mm 4 m/S 752 mmHg 96%
07:00 +1°C° 0.1 mm 4 m/S 752 mmHg 97%
08:00 +1°C° 0.1 mm 4 m/S 752 mmHg 96%
09:00 +1°C° 0.1 mm 4 m/S 752 mmHg 96%
10:00 +1°C° 0.1 mm 4 m/S 752 mmHg 95%
11:00 +1°C° 0.1 mm 4 m/S 752 mmHg 95%
12:00 +1°C° 0.1 mm 4 m/S 752 mmHg 95%
13:00 +3°C° 0.1 mm 4 m/S 752 mmHg 95%
14:00 +3°C° 0.3 mm 4 m/S 752 mmHg 95%
15:00 +3°C° 0.3 mm 4 m/S 752 mmHg 95%
16:00 +3°C° 0.3 mm 3 m/S 752 mmHg 95%
17:00 +3°C° 0.1 mm 3 m/S 753 mmHg 96%
18:00 +2°C° 0.1 mm 3 m/S 753 mmHg 96%
19:00 +2°C° 0.1 mm 3 m/S 753 mmHg 97%
20:00 +2°C° 0 mm 3 m/S 753 mmHg 97%
21:00 +2°C° 0 mm 3 m/S 753 mmHg 97%
22:00 +3°C° 0 mm 2 m/S 753 mmHg 97%
23:00 +3°C° 0 mm 2 m/S 753 mmHg 98%

übermorgen, 17 April, Samstag

Zeit Temperatur Niederschläge Wind Luftdruck Luftfeuchtigkeit
00:00 +3°C° 0 mm 2 m/S 753 mmHg 98%
01:00 +4°C° 0 mm 2 m/S 753 mmHg 98%
02:00 +4°C° 0 mm 2 m/S 753 mmHg 98%
03:00 +3°C° 0 mm 3 m/S 753 mmHg 98%
04:00 +3°C° 0 mm 3 m/S 753 mmHg 98%
05:00 +3°C° 0.4 mm 3 m/S 753 mmHg 98%
06:00 +3°C° 0.4 mm 3 m/S 753 mmHg 98%
07:00 +4°C° 0.4 mm 3 m/S 753 mmHg 97%
08:00 +4°C° 0.5 mm 3 m/S 753 mmHg 97%
09:00 +6°C° 0.5 mm 2 m/S 753 mmHg 97%
10:00 +6°C° 0.5 mm 2 m/S 753 mmHg 97%
11:00 +7°C° 0.1 mm 2 m/S 753 mmHg 95%
12:00 +8°C° 0.1 mm 2 m/S 753 mmHg 92%
13:00 +8°C° 0.1 mm 2 m/S 753 mmHg 90%
14:00 +9°C° 0.2 mm 2 m/S 753 mmHg 86%
15:00 +10°C° 0.2 mm 2 m/S 753 mmHg 82%
16:00 +10°C° 0.2 mm 2 m/S 753 mmHg 78%
17:00 +9°C° 0.1 mm 2 m/S 753 mmHg 82%
18:00 +8°C° 0.1 mm 2 m/S 753 mmHg 86%
19:00 +7°C° 0.1 mm 2 m/S 753 mmHg 90%
20:00 +7°C° 0 mm 2 m/S 753 mmHg 91%
21:00 +6°C° 0 mm 2 m/S 753 mmHg 92%
22:00 +6°C° 0 mm 2 m/S 753 mmHg 92%
23:00 +6°C° 0.1 mm 2 m/S 753 mmHg 92%

18 April, Sonntag

Zeit Temperatur Niederschläge Wind Luftdruck Luftfeuchtigkeit
00:00 +6°C° 0.1 mm 2 m/S 753 mmHg 93%
01:00 +6°C° 0.1 mm 2 m/S 753 mmHg 93%
02:00 +6°C° 0 mm 2 m/S 753 mmHg 93%
03:00 +5°C° 0 mm 2 m/S 753 mmHg 94%
04:00 +5°C° 0 mm 2 m/S 753 mmHg 94%
05:00 +5°C° 0 mm 2 m/S 753 mmHg 94%
06:00 +4°C° 0 mm 3 m/S 753 mmHg 93%
07:00 +4°C° 0 mm 3 m/S 753 mmHg 92%
08:00 +5°C° 0 mm 3 m/S 753 mmHg 90%
09:00 +7°C° 0 mm 3 m/S 753 mmHg 89%
10:00 +7°C° 0 mm 3 m/S 753 mmHg 88%
11:00 +8°C° 0 mm 3 m/S 753 mmHg 81%
12:00 +9°C° 0 mm 3 m/S 753 mmHg 75%
13:00 +10°C° 0 mm 3 m/S 753 mmHg 68%
14:00 +11°C° 0.1 mm 3 m/S 753 mmHg 69%
15:00 +11°C° 0.1 mm 3 m/S 753 mmHg 69%
16:00 +11°C° 0.1 mm 3 m/S 753 mmHg 69%
17:00 +10°C° 0 mm 3 m/S 753 mmHg 73%
18:00 +9°C° 0 mm 3 m/S 753 mmHg 77%
19:00 +8°C° 0 mm 3 m/S 753 mmHg 82%
20:00 +8°C° 0 mm 3 m/S 753 mmHg 83%
21:00 +7°C° 0 mm 3 m/S 753 mmHg 84%
22:00 +7°C° 0 mm 3 m/S 753 mmHg 85%
23:00 +7°C° 0 mm 2 m/S 753 mmHg 86%

19 April, Montag

Zeit Temperatur Niederschläge Wind Luftdruck Luftfeuchtigkeit
00:00 +7°C° 0 mm 2 m/S 753 mmHg 86%
01:00 +7°C° 0 mm 2 m/S 753 mmHg 87%
02:00 +6°C° 0 mm 2 m/S 752 mmHg 87%
03:00 +6°C° 0 mm 2 m/S 752 mmHg 88%
04:00 +6°C° 0 mm 2 m/S 752 mmHg 88%
05:00 +7°C° 0 mm 3 m/S 752 mmHg 85%
06:00 +7°C° 0 mm 3 m/S 752 mmHg 83%
07:00 +8°C° 0 mm 3 m/S 752 mmHg 80%
08:00 +7°C° 0 mm 4 m/S 751 mmHg 80%
09:00 +8°C° 0 mm 4 m/S 751 mmHg 79%
10:00 +8°C° 0 mm 5 m/S 751 mmHg 78%
11:00 +8°C° 0.1 mm 5 m/S 751 mmHg 78%
12:00 +8°C° 0.1 mm 4 m/S 750 mmHg 78%
13:00 +8°C° 0.1 mm 4 m/S 750 mmHg 79%
14:00 +8°C° 0.2 mm 4 m/S 750 mmHg 81%
15:00 +8°C° 0.2 mm 4 m/S 749 mmHg 83%
16:00 +9°C° 0.2 mm 3 m/S 749 mmHg 85%
17:00 +9°C° 0.1 mm 3 m/S 749 mmHg 87%
18:00 +8°C° 0.1 mm 3 m/S 749 mmHg 89%
19:00 +8°C° 0.1 mm 3 m/S 749 mmHg 91%
20:00 +8°C° 0.2 mm 3 m/S 748 mmHg 92%
21:00 +8°C° 0.2 mm 3 m/S 748 mmHg 93%
22:00 +8°C° 0.2 mm 2 m/S 748 mmHg 95%
23:00 +8°C° 0.1 mm 2 m/S 747 mmHg 95%

20 April, Dienstag

Zeit Temperatur Niederschläge Wind Luftdruck Luftfeuchtigkeit
00:00 +8°C° 0.1 mm 3 m/S 747 mmHg 96%
01:00 +8°C° 0.1 mm 3 m/S 746 mmHg 97%
02:00 +8°C° 0.1 mm 3 m/S 746 mmHg 96%
03:00 +8°C° 0.1 mm 3 m/S 746 mmHg 96%
04:00 +7°C° 0.1 mm 4 m/S 745 mmHg 95%
05:00 +7°C° 0.2 mm 4 m/S 745 mmHg 95%
06:00 +7°C° 0.2 mm 4 m/S 745 mmHg 95%
07:00 +7°C° 0.2 mm 4 m/S 745 mmHg 95%
08:00 +7°C° 0.1 mm 4 m/S 744 mmHg 94%
09:00 +7°C° 0.1 mm 4 m/S 744 mmHg 92%
10:00 +8°C° 0.1 mm 4 m/S 744 mmHg 90%
11:00 +8°C° 0.1 mm 4 m/S 744 mmHg 88%
12:00 +9°C° 0.1 mm 5 m/S 744 mmHg 85%
13:00 +9°C° 0.1 mm 5 m/S 743 mmHg 82%
14:00 +9°C° 0.1 mm 5 m/S 743 mmHg 84%
15:00 +8°C° 0.1 mm 5 m/S 743 mmHg 86%
16:00 +8°C° 0.1 mm 5 m/S 743 mmHg 88%
17:00 +8°C° 0 mm 5 m/S 743 mmHg 89%
18:00 +7°C° 0 mm 5 m/S 743 mmHg 90%
19:00 +7°C° 0 mm 4 m/S 743 mmHg 91%
20:00 +7°C° 0 mm 4 m/S 743 mmHg 91%
21:00 +6°C° 0 mm 4 m/S 742 mmHg 92%
22:00 +6°C° 0 mm 4 m/S 742 mmHg 92%
23:00 +6°C° 0 mm 4 m/S 742 mmHg 92%
Mehr zeigen

Wir brauchen deine Erlaubnis

Meteoprog und unser Service Anbieter werden persönliche Daten aufbewahren, so wie Cookies, Geräte Bezeichnung oder ähnliche Technologien von deinem Gerät und Prozess, so wie Persönliche Daten Inhalte und Werbungen, genauso wie social Media und den Verkehr zu analysieren.

  • Aufbewahrung und/oder Zugang zu deiner Geräte Informationen.

    Cookies, Geräte Bezeichnung oder andere Informationen, können aufbewahrt oder Zugang zu deinem Gerät erhalten, für den Grund, der oben angegeben wird.

  • Personalisierte Werbung und Inhalte, Messungen, Einblick in das Publikum und Produkt Entwicklung.

    Werbungen und Inhalte können personalisiert werden, basierend auf ein Profil. Mehr Daten können besser personalisierte Werbungen und Inhalte hinzufügen. Werbung und Inhalte können gezeigt und gemessen werden. Einblicke über das Publikum, welche die Werbung gesehen haben und den Inhalt, können abgeleitet werden. So wie Daten können genutzt werden, um es zu verbessern oder die Benutzer Erfahrung zu verbessern das System und die Software.

Wenn du “Ich stimme zu” klickst, erlaubst du uns, die Cookies zu benutzen die Geräte Bezeichnung, den Web oder ähnliche Technologien zu benutzen. Deine Settings, können in deinem Gerät bei deinem Browser geändert werden.

Für den bestimmten Zweck, berechtigten Interessen beruhen darauf, mehr als auf den Inhalt. Du kannst mehr darüber in unseren Privaten und Cookie Politik lesen.